EN

Hourly Weather Amberieu-en-Bugey

Today, 26 January, Tuesday

Time Temperature Precipitation Wind Pressure Humidity
00:00 -3°C° 0 mm 2 mps 738 mmHg 95%
01:00 -3°C° 0 mm 2 mps 738 mmHg 95%
02:00 -3°C° 0 mm 2 mps 738 mmHg 95%
03:00 -3°C° 0 mm 2 mps 739 mmHg 95%
04:00 -2°C° 0 mm 1 mps 739 mmHg 95%
05:00 -2°C° 0 mm 1 mps 739 mmHg 94%
06:00 -3°C° 0 mm 1 mps 740 mmHg 94%
07:00 -3°C° 0 mm 0 mps 740 mmHg 91%
08:00 -2°C° 0 mm 0 mps 740 mmHg 89%
09:00 -1°C° 0 mm 0 mps 741 mmHg 86%
10:00 +1°C° 0 mm 1 mps 740 mmHg 82%
11:00 +3°C° 0 mm 1 mps 740 mmHg 78%
12:00 +4°C° 0 mm 1 mps 740 mmHg 75%
13:00 +4°C° 0 mm 1 mps 740 mmHg 75%
14:00 +4°C° 0 mm 1 mps 739 mmHg 76%
15:00 +4°C° 0 mm 1 mps 739 mmHg 77%
16:00 +3°C° 0 mm 1 mps 739 mmHg 81%
17:00 +1°C° 0 mm 1 mps 740 mmHg 84%
18:00 0°C° 0 mm 1 mps 740 mmHg 88%
19:00 0°C° 0 mm 1 mps 740 mmHg 88%
20:00 -1°C° 0 mm 0 mps 740 mmHg 88%
21:00 -1°C° 0 mm 0 mps 739 mmHg 88%
22:00 -1°C° 0 mm 0 mps 739 mmHg 87%
23:00 -1°C° 0 mm 0 mps 739 mmHg 87%

Tomorrow, 27 January, Wednesday

Time Temperature Precipitation Wind Pressure Humidity
00:00 -2°C° 0 mm 0 mps 739 mmHg 87%
01:00 -1°C° 0 mm 1 mps 739 mmHg 86%
02:00 -1°C° 0 mm 1 mps 738 mmHg 86%
03:00 -1°C° 0 mm 1 mps 738 mmHg 85%
04:00 -1°C° 0 mm 1 mps 737 mmHg 83%
05:00 0°C° 0 mm 1 mps 737 mmHg 80%
06:00 0°C° 0 mm 1 mps 737 mmHg 78%
07:00 +1°C° 0 mm 1 mps 737 mmHg 76%
08:00 +2°C° 0 mm 1 mps 737 mmHg 74%
09:00 +2°C° 0 mm 1 mps 737 mmHg 72%
10:00 +3°C° 0.2 mm 1 mps 737 mmHg 74%
11:00 +3°C° 0.2 mm 1 mps 737 mmHg 76%
12:00 +3°C° 0.2 mm 1 mps 737 mmHg 78%
13:00 +4°C° 0.2 mm 1 mps 737 mmHg 81%
14:00 +4°C° 0.2 mm 1 mps 737 mmHg 83%
15:00 +4°C° 0.2 mm 1 mps 736 mmHg 85%
16:00 +4°C° 0.2 mm 1 mps 737 mmHg 86%
17:00 +4°C° 0.2 mm 1 mps 737 mmHg 88%
18:00 +4°C° 0.2 mm 1 mps 737 mmHg 90%
19:00 +4°C° 0.2 mm 1 mps 737 mmHg 91%
20:00 +4°C° 0.2 mm 1 mps 738 mmHg 91%
21:00 +4°C° 0.2 mm 1 mps 738 mmHg 92%
22:00 +4°C° 0 mm 1 mps 738 mmHg 93%
23:00 +5°C° 0 mm 1 mps 737 mmHg 94%

Day after tomorrow, 28 January, Thursday

Time Temperature Precipitation Wind Pressure Humidity
00:00 +5°C° 0 mm 1 mps 737 mmHg 94%
01:00 +5°C° 0.5 mm 1 mps 737 mmHg 95%
02:00 +5°C° 0.5 mm 1 mps 737 mmHg 96%
03:00 +4°C° 0.5 mm 2 mps 736 mmHg 97%
04:00 +4°C° 1 mm 2 mps 736 mmHg 97%
05:00 +5°C° 1 mm 2 mps 736 mmHg 97%
06:00 +5°C° 1 mm 2 mps 736 mmHg 97%
07:00 +5°C° 0.1 mm 2 mps 735 mmHg 96%
08:00 +5°C° 0.1 mm 2 mps 735 mmHg 95%
09:00 +6°C° 0.1 mm 2 mps 735 mmHg 94%
10:00 +6°C° 0.4 mm 2 mps 735 mmHg 94%
11:00 +7°C° 0.4 mm 2 mps 735 mmHg 93%
12:00 +7°C° 0.4 mm 2 mps 734 mmHg 93%
13:00 +7°C° 0.8 mm 2 mps 734 mmHg 94%
14:00 +7°C° 0.8 mm 2 mps 734 mmHg 95%
15:00 +7°C° 0.8 mm 2 mps 733 mmHg 97%
16:00 +7°C° 0.6 mm 2 mps 734 mmHg 97%
17:00 +7°C° 0.6 mm 2 mps 734 mmHg 97%
18:00 +7°C° 0.6 mm 2 mps 734 mmHg 97%
19:00 +8°C° 1.1 mm 2 mps 734 mmHg 98%
20:00 +8°C° 1.1 mm 2 mps 734 mmHg 98%
21:00 +8°C° 1.1 mm 2 mps 734 mmHg 98%
22:00 +8°C° 1 mm 2 mps 734 mmHg 98%
23:00 +8°C° 1 mm 2 mps 734 mmHg 97%

29 January, Friday

Time Temperature Precipitation Wind Pressure Humidity
00:00 +8°C° 1 mm 2 mps 734 mmHg 97%
01:00 +8°C° 0.1 mm 2 mps 733 mmHg 96%
02:00 +8°C° 0.1 mm 2 mps 733 mmHg 95%
03:00 +8°C° 0.1 mm 2 mps 733 mmHg 94%
04:00 +8°C° 0.4 mm 2 mps 733 mmHg 95%
05:00 +8°C° 0.4 mm 2 mps 732 mmHg 95%
06:00 +9°C° 0.4 mm 1 mps 732 mmHg 96%
07:00 +9°C° 0.5 mm 1 mps 732 mmHg 96%
08:00 +9°C° 0.5 mm 1 mps 732 mmHg 96%
09:00 +9°C° 0.5 mm 1 mps 732 mmHg 97%
10:00 +10°C° 0.6 mm 1 mps 732 mmHg 96%
11:00 +10°C° 0.6 mm 1 mps 732 mmHg 96%
12:00 +10°C° 0.6 mm 1 mps 732 mmHg 95%
13:00 +10°C° 0.8 mm 1 mps 732 mmHg 94%
14:00 +10°C° 0.8 mm 1 mps 732 mmHg 93%
15:00 +10°C° 0.8 mm 1 mps 732 mmHg 92%
16:00 +9°C° 0.3 mm 1 mps 733 mmHg 93%
17:00 +8°C° 0.3 mm 1 mps 733 mmHg 93%
18:00 +7°C° 0.3 mm 1 mps 733 mmHg 94%
19:00 +7°C° 0.1 mm 1 mps 734 mmHg 94%
20:00 +6°C° 0.1 mm 1 mps 734 mmHg 93%
21:00 +6°C° 0.1 mm 1 mps 734 mmHg 93%
22:00 +6°C° 0 mm 1 mps 734 mmHg 93%
23:00 +6°C° 0 mm 1 mps 734 mmHg 93%

30 January, Saturday

Time Temperature Precipitation Wind Pressure Humidity
00:00 +6°C° 0 mm 1 mps 734 mmHg 93%
01:00 +6°C° 0 mm 1 mps 733 mmHg 92%
02:00 +6°C° 0 mm 1 mps 732 mmHg 92%
03:00 +6°C° 0 mm 1 mps 732 mmHg 91%
04:00 +5°C° 0 mm 1 mps 731 mmHg 91%
05:00 +5°C° 0 mm 1 mps 730 mmHg 91%
06:00 +4°C° 0 mm 1 mps 729 mmHg 92%
07:00 +5°C° 0 mm 1 mps 729 mmHg 90%
08:00 +5°C° 0 mm 1 mps 729 mmHg 88%
09:00 +5°C° 0 mm 0 mps 728 mmHg 86%
10:00 +6°C° 0 mm 0 mps 728 mmHg 83%
11:00 +8°C° 0 mm 0 mps 727 mmHg 79%
12:00 +9°C° 0 mm 0 mps 727 mmHg 76%
13:00 +9°C° 0 mm 0 mps 727 mmHg 77%
14:00 +9°C° 0 mm 0 mps 727 mmHg 79%
15:00 +9°C° 0 mm 0 mps 726 mmHg 80%
16:00 +8°C° 0 mm 0 mps 727 mmHg 84%
17:00 +7°C° 0 mm 1 mps 728 mmHg 88%
18:00 +6°C° 0 mm 1 mps 728 mmHg 92%
19:00 +6°C° 0 mm 1 mps 729 mmHg 92%
20:00 +5°C° 0 mm 0 mps 729 mmHg 91%
21:00 +5°C° 0 mm 0 mps 729 mmHg 91%
22:00 +6°C° 0 mm 1 mps 730 mmHg 91%
23:00 +6°C° 0 mm 1 mps 730 mmHg 91%

31 January, Sunday

Time Temperature Precipitation Wind Pressure Humidity
00:00 +5°C° 0 mm 1 mps 730 mmHg 91%
01:00 +6°C° 0 mm 1 mps 730 mmHg 90%
02:00 +6°C° 0 mm 1 mps 729 mmHg 89%
03:00 +6°C° 0 mm 1 mps 729 mmHg 89%
04:00 +6°C° 0.2 mm 1 mps 729 mmHg 89%
05:00 +5°C° 0.2 mm 2 mps 729 mmHg 89%
06:00 +5°C° 0.2 mm 2 mps 729 mmHg 89%
07:00 +5°C° 0.5 mm 2 mps 729 mmHg 89%
08:00 +5°C° 0.5 mm 2 mps 729 mmHg 90%
09:00 +5°C° 0.5 mm 2 mps 728 mmHg 90%
10:00 +5°C° 1.3 mm 2 mps 728 mmHg 92%
11:00 +5°C° 1.3 mm 3 mps 727 mmHg 93%
12:00 +5°C° 1.3 mm 3 mps 727 mmHg 95%
13:00 +5°C° 0.7 mm 4 mps 726 mmHg 94%
14:00 +6°C° 0.7 mm 4 mps 725 mmHg 92%
15:00 +7°C° 0.7 mm 4 mps 725 mmHg 91%
16:00 +7°C° 1 mm 4 mps 725 mmHg 92%
17:00 +7°C° 1 mm 4 mps 724 mmHg 92%
18:00 +7°C° 1 mm 4 mps 724 mmHg 93%
19:00 +7°C° 1.3 mm 4 mps 724 mmHg 93%
20:00 +7°C° 1.3 mm 4 mps 724 mmHg 92%
21:00 +7°C° 1.3 mm 4 mps 724 mmHg 92%
22:00 +7°C° 1.5 mm 4 mps 724 mmHg 93%
23:00 +7°C° 1.5 mm 4 mps 724 mmHg 93%
Show more